Location: Carbonear
(47.7333°N, 53.2500°W)
Time: 00:43:15
(UTC+00:00)

AO-27 - Pass Details

Date: 10 December 2022
Orbit: 784 x 797 km, 98.9° (Epoch: 26 January)

Event Time Altitude Azimuth Distance (km) Brightness Sun altitude
Exits shadow 23:11:37 16° 339° (NNW) 1,977 9.9 -34.3°
Drops below altitude 10° 23:12:40 10° 341° (NNW) 2,382 10.3 -34.5°
Sets 23:15:01 0° 344° (NNW) 3,316 11.1 -34.9°
